Regional Weather Roundup
Issued by NWS Jackson, KY

Home | Current Version | Previous Version | Graphics & Text | Print | Product List | Glossary On
Versions: 1 2 3 4 5 6 7 8 9 10 11 12 13 14 15 16 17 18 19 20 21 22 23 24 25 26 27 28 29 30 31 32 33 34 35 36 37 38 39 40 41 42 43 44 45 46 47 48 49 50
590
ASUS43 KJKL 232210
RWRJKL

EAST KENTUCKY HOURLY WEATHER ROUNDUP
NATIONAL WEATHER SERVICE JACKSON KY
600 PM EDT SUN APR 23 2017

NOTE: "FAIR" INDICATES FEW OR NO CLOUDS BELOW 12,000 FEET WITH
NO SIGNIFICANT WEATHER AND/OR OBSTRUCTIONS TO VISIBILITY.

* THESE REPORTS ARE NOT UNDER NWS QUALITY CONTROL AND MAY NOT
  REPORT WEATHER SUCH AS PRECIPITATION AND FOG.

KYZ079-080-083-085-087-088-110-112-115-119-120-232300
...EASTERN KENTUCKY...

CITY           SKY/WX    TMP DP  RH WIND       PRES   REMARKS
JACKSON        LGT RAIN  51  50  96 VRB3      29.91S FOG
LONDON         LGT RAIN  52  48  86 E12G20    29.87S
SOMERSET*      DRIZZLE   52  52 100 E8G17     29.86R
MONTICELLO*    LGT RAIN  53  51  93 N9G20     29.84F
WILLIAMSBURG*  CLOUDY    54  54 100 E8        29.86R
MIDDLESBORO*   RAIN      54  54 100 CALM      29.88R
HARLAN APT*    CLOUDY    54  52  94 NE3       29.87R
PIKE CO APT*   LGT RAIN  51  51 100 NE9       29.92S
BIG SANDY APT* LGT RAIN  52  52 100 E6        29.93S
MOREHEAD APT*  LGT RAIN  55  45  67 NE8G16    29.95S
ASHLAND*       CLOUDY    59  48  67 NE3       29.95S
$$

KYZ035-036-041-042-044-050-067-078-099-232300
...CENTRAL KENTUCKY...

CITY           SKY/WX    TMP DP  RH WIND       PRES   REMARKS
MT STERLING*   LGT RAIN  52  48  87 E8        29.96R
FLEMING/MASON* CLOUDY    57  46  65 E10       29.96R
DANVILLE*      LGT RAIN  50  48  93 NE14G20   29.90F
LEXINGTON      CLOUDY    56  47  71 NE13      29.93S
FRANKFORT      CLOUDY    59  45  59 NE6       29.91F
LOUISVILLE     CLOUDY    61  42  49 NE10      29.92S
LEBANON*         N/A     54  48  82 N12G18    29.88F
GLASGOW*       CLOUDY    51  51 100 NE7       29.86S
BOWLING GREEN  CLOUDY    53  51  93 N7        29.89R
$$

KYZ091>093-OHZ055-061-077-WVZ005-015-034-035-042-232300
...SOUTHERN OHIO/WEST VIRGINIA...

CITY           SKY/WX    TMP DP  RH WIND       PRES   REMARKS
COVINGTON      CLOUDY    63  34  33 NE13      29.95S
COLUMBUS       CLOUDY    68  33  27 E10       29.98R
DAYTON         CLOUDY    67  31  26 NE15      29.98S
WILMINGTON     CLOUDY    62  38  40 NE10      29.96F
HUNTINGTON     LGT RAIN  55  49  80 E7        29.95S
CHARLESTON     CLOUDY    58  51  78 CALM      29.96S
PINEVILLE*     LGT RAIN  50  48  92 MISG      30.00F
BECKLEY        LGT RAIN  47  44  90 E9        29.98F
LOGAN CO APT*    N/A     52  50  93 NE5       29.94F
$$

VAZ002-007-008-TNZ017-027-036-066-071-232300
...SOUTHWEST VIRGINIA/EAST TENNESSEE...

CITY           SKY/WX    TMP DP  RH WIND       PRES   REMARKS
WISE*          RAIN      50  50 100 CALM      29.91S
JONESVILLE*    LGT RAIN  52  52 100 NE7       29.89R
ABINGDON*      LGT RAIN  49  47  94 E17       29.89F
BRISTOL        RAIN      50  49  96 NE5       29.88R FOG
MORRISTOWN*    CLOUDY    54  52  94 E10G16    29.83R FOG
SEVIERVILLE*   CLOUDY    55  54  94 E8        29.80S
KNOXVILLE      LGT RAIN  56  54  93 NE17      29.77F FOG
LAFOLLETTE*    CLOUDY    55  54  94 NE7       29.86S FOG
OAK RIDGE      LGT RAIN  56  54  93 VRB6      29.80F
CROSSVILLE     CLOUDY    54  52  93 NE9       29.77F
NASHVILLE      RAIN      53  51  93 NW6       29.85R FOG
$$

...KEY TO REMARKS...
VSB - VISIBILITY IN MILES
WCI - WIND CHILL INDEX
HX  - HEAT INDEX

$$




USA.gov is the U.S. government's official web portal to all federal, state and local government web resources and services.